This demonstration page uses our WeatherBlox Daily Observations layout. Learn more.

Left ArrowRight Arrow

Hourly Observations for July 14, 2018

Temp ( °F °C ) Dew Point ( °F °C ) Humidity (%) Winds ( mph kmh ) Pressure ( in mb ) Visibility ( mi km ) Precip ( " mm )
12:53 am 00:53 Clear 72 22.2 45 7.2 38 38 S 8 13 29.79 1009 10 16 0.00 0.00
1:53 am 01:53 Clear 67 19.4 46 7.8 47 47 WSW 6 9 29.80 1009 10 16 0.00 0.00
2:53 am 02:53 Clear 66 18.9 47 8.3 50 50 WSW 8 13 29.83 1010 10 16 0.00 0.00
3:21 am 03:21 Clear 66 18.9 56 13.3 70 70 NW 12 19 29.83 1010 10 16 0.00 0.00
3:53 am 03:53 Clear 64 17.8 57 13.9 78 78 WNW 9 15 29.88 1012 10 16 0.00 0.00
4:17 am 04:17 Mostly Cloudy 63 17.2 57 13.9 81 81 W 3 6 29.88 1012 10 16 0.00 0.00
4:53 am 04:53 Cloudy 63 17.2 56 13.3 78 78 NW 12 19 29.91 1013 10 16 0.00 0.00
5:53 am 05:53 Cloudy 61 16.1 54 12.2 78 78 NW 17 28 29.95 1014 10 16 0.00 0.00
6:53 am 06:53 Cloudy 61 16.1 54 12.2 78 78 WNW 20 31 29.99 1016 10 16 0.00 0.00
7:53 am 07:53 Cloudy 62 16.7 54 12.2 75 75 WNW 15 24 30.03 1017 10 16 0.00 0.00
8:53 am 08:53 Cloudy 63 17.2 53 11.7 70 70 NW 16 26 30.05 1018 10 16 0.00 0.00
9:53 am 09:53 Cloudy 61 16.1 51 10.6 70 70 NW 21 33 30.10 1019 10 16 0.00 0.00
10:46 am 10:46 Cloudy 62 16.7 50 10 65 65 NW 16 26 30.12 1020 10 16 0.00 0.00
10:53 am 10:53 Cloudy 63 17.2 50 10 63 63 NNW 18 30 30.14 1021 10 16 0.00 0.00
11:53 am 11:53 Cloudy 64 17.8 49 9.4 58 58 NNW 16 26 30.17 1022 10 16 0.00 0.00
12:53 pm 12:53 Cloudy 65 18.3 48 8.9 54 54 N 10 17 30.17 1022 10 16 0.00 0.00
1:53 pm 13:53 Cloudy 70 21.1 47 8.3 44 44 VRB 6 9 30.16 1022 10 16 0.00 0.00
2:53 pm 14:53 Mostly Sunny 74 23.3 44 6.7 34 34 NW 13 20 30.15 1021 10 16 0.00 0.00
3:53 pm 15:53 Sunny 75 23.9 44 6.7 33 33 NNW 18 30 30.16 1021 10 16 0.00 0.00
4:53 pm 16:53 Sunny 74 23.3 40 4.4 29 29 NNW 13 20 30.16 1021 10 16 0.00 0.00
5:53 pm 17:53 Sunny 75 23.9 39 3.9 27 27 N 10 17 30.16 1021 10 16 0.00 0.00
6:53 pm 18:53 Mostly Sunny 74 23.3 40 4.4 29 29 NW 12 19 30.16 1021 10 16 0.00 0.00
7:53 pm 19:53 Sunny 72 22.2 38 3.3 29 29 N 9 15 30.16 1022 10 16 0.00 0.00
8:53 pm 20:53 Mostly Sunny 68 20 39 3.9 35 35 NW 6 9 30.18 1022 10 16 0.00 0.00
9:53 pm 21:53 Partly Cloudy 62 16.7 39 3.9 43 43 WNW 3 6 30.22 1023 10 16 0.00 0.00
10:53 pm 22:53 Mostly Clear 56 13.3 39 3.9 53 53 WSW 3 6 30.24 1024 10 16 0.00 0.00
11:53 pm 23:53 Clear 51 10.6 40 4.4 66 66 S 5 7 30.25 1024 10 16 0.00 0.00

Powered by AerisWeather